Regional Weather Roundup
Issued by NWS Green Bay, WI

Home | Current Version | Previous Version | Text Only | Print | Product List | Glossary On
Versions: 1 2 3 4 5 6 7 8 9 10 11 12 13 14 15 16 17 18 19 20 21 22 23 24 25 26 27 28 29 30 31 32 33 34 35 36 37 38 39 40 41 42 43 44 45 46 47 48 49 50
000
ASUS43 KGRB 261111
RWRGRB

NORTH-CENTRAL AND NORTHEAST WISCONSIN REGIONAL WEATHER ROUNDUP
NATIONAL WEATHER SERVICE GREEN BAY WI
600 AM CDT MON JUN 26 2017

WIZ005-009-010>012-018-019-261200-
NORTH CENTRAL WISCONSIN

CITY           SKY/WX    TMP DP  RH WIND       PRES   REMARKS
IRONWOOD       LGT RAIN  46  45  96 NW14      30.04F FOG
MANITOWISH WTR DRIZZLE   44  44 100 NW7       30.03S
ARBOR VITAE    CLOUDY    46  43  92 NW9G17    30.02S
EAGLE RIVER    CLOUDY    46  45  97 NW6       30.01S
LAND O LAKES   CLOUDY    46  44  94 NW8       30.02R
RHINELANDER    CLOUDY    46  44  93 W10       30.03R
PHILLIPS       CLOUDY    45  43  93 W5        30.07S
ANTIGO         PTCLDY    45  44  95 W10       30.03S
TOMAHAWK       NOT AVBL
MERRILL        CLOUDY    47  46  96 W7        30.06S
$$

WIZ013-073-261200-
NORTHEAST WISCONSIN

CITY           SKY/WX    TMP DP  RH WIND       PRES   REMARKS
IRON MOUNTAIN  CLOUDY    49  44  83 W8        29.97R
MARINETTE      PTCLDY    48  46  93 W3        30.00S
OCONTO         CLEAR     49  46  91 W10       30.01S
$$

WIZ017-030-035>037-045-261200-
CENTRAL WISCONSIN

CITY           SKY/WX    TMP DP  RH WIND       PRES   REMARKS
MEDFORD        PTCLDY    44  42  93 NW7       30.08S
WAUSAU         CLOUDY    46  44  93 W12       30.05S
MOSINEE        PTCLDY    45  45 100 W8        30.07S
MARSHFIELD     CLEAR     46  43  89 W7        30.08S
WISC RAPIDS    CLEAR     47  44  90 W8        30.10S
STEVENS POINT  CLEAR     46  45  97 W6        30.07S
WAUPACA        CLEAR     50  48  93 W9        30.06S
SHAWANO        CLEAR     50  46  87 W9        30.04R
CLINTONVILLE   MOCLDY    46  45  93 W7        30.05R
WAUTOMA        CLEAR     49  46  90 W8        30.09R
$$

WIZ038-039-048-051-261200-
FOX VALLEY

CITY           SKY/WX    TMP DP  RH WIND       PRES   REMARKS
NWS GREEN BAY  CLEAR     51  50  96 W9        30.04R
APPLETON       PTCLDY    46  46 100 W8        30.04S
OSHKOSH        CLEAR     50  46  86 W6        30.06R
FOND DU LAC    CLEAR     51  45  79 W9        30.07R
$$

WIZ022-050-052-261200-
EAST CENTRAL WISCONSIN

CITY           SKY/WX    TMP DP  RH WIND       PRES   REMARKS
EPHRAIM        PTSUNNY   50  47  89 W7        29.97S
WASHINGTON ISL CLOUDY    53  49  88 W7        29.95S
STURGEON BAY     N/A     52  47  83 W12         N/A
MANITOWOC      CLEAR     52  47  83 W10       30.04R
SHEBOYGAN      CLEAR     51  49  92 W9        30.05R
$$

LMZ563-521-522-541>543-261200-
LAKESHORE

STATION/POSITION TIME  TEMP    WIND        PRES    VSBY  WAVE
                       AIR SEA DIR/SP/G                  HT/PER
                 (UTC) (F)     (DEG/KT/KT) (MB)    (MI)  (FT/S)
SHEBOYGAN LKSHOR 1100   53     260/ 11/ 13 1017.4R
KEWAUNEE LKSHORE 1048   51     270/  7/ 11 1015.8R
NORTHPORT PIER   1040   54     290/  6/ 12 1014.6S
N MID LAKE BUOY  1050   55 57  360/  6/  8 1014.7R         1/ 3
S GREEN BAY BUOY 1100   53     260/ 16/ 19 1015.8
CHAMBERS ISLAND  1030   51     230/  5/ 11 1014.9R
MENOMINEE LKSHOR 1048          260/  7/ 11 1014.9R
$$



USA.gov is the U.S. government's official web portal to all federal, state and local government web resources and services.